Voltar ao catálogo

COSMOS 1275 DEB

AtivoPO
NORAD 18902·DEBRIS·🇷🇺 Russia

Lançado Jun 4, 1981 de Plesetsk Cosmodrome

Loading…

Próximas Passagens (próximas 24 horas)

TLE

AtualizadoSource: Space-Track

Época: Sep 13, 2026, 08:40 UTC

1 18902U 81053MB  26256.36147040  .00005728  00000-0  12444-2 0  9992
2 18902  82.9405 225.8794 0010205 309.8890  50.1414 14.57915876678146

Acompanhe COSMOS 1275 DEB em tempo real com AllMySat

Download on the App Store